sat.trackr.live / text

‹ back to catalog

TIANLIAN 2-01

NORAD 44076 · 2019-017A

PAYLOAD ACTIVE UNKNOWN

§ Identity

Operator
Country
PRC
Launch date
2019-03-31
Launch site
XICLF
Launch vehicle
Mass (kg)
RCS (m²)

Purposes: comms

External: N2YO · Heavens-Above · Gunter

§ Orbital elements

Epoch: 2026-09-19T22:28:12.182304Z

Period
1,436.09 min
Inclination
0.7772°
Eccentricity
0.0003219
Mean motion
1.00272400 rev/d
Perigee alt
35,772.8 km
Apogee alt
35,800.0 km
Semi-major
42,164.6 km
B*
0.0000e+0
RAAN
82.4592°
Arg perigee
125.0433°
Mean anomaly
205.4105°
Rev number
2,759

§ Raw data

TIANLIAN 2-011 44076U 19017A   26262.93625211 -.00000111  00000+0  00000+0 0  99982 44076   0.7772  82.4592 0003219 125.0433 205.4105  1.00272400 27595

JSON: /api/v1/satellites/44076 · /tle

For live sub-satellite position, see the globe view (requires WebGL).

§ Visibility from observer

Set your observer location to see the next 7 days of passes ≥ 10°. The values pass through the URL so the page stays shareable.

No JS? Fill the form by hand. The geolocation button needs JavaScript.